Location: Sungai Bunut
(2.6333°N, 113.7333°E)
Time: 11:09:34
(UTC+00:00)

Envisat - Pass Details

Date: 22 January 2022
Orbit: 764 x 765 km, 98.2° (Epoch: 15 May)

Event Time Altitude Azimuth Distance (km) Brightness Sun altitude
Rises 20:21:30 0° 28° (NNE) 3,216 6.3 -32.6°
Reaches altitude 10° 20:23:58 10° 37° (NE) 2,292 5.6 -32.1°
Maximum altitude 20:28:32 35° 102° (ESE) 1,227 4.5 -31.0°
Drops below altitude 10° 20:33:07 10° 166° (SSE) 2,300 5.8 -29.9°
Sets 20:35:35 0° 175° (S) 3,228 6.6 -29.4°
